SHIJIAN-28

Last updated on Thu Dec 18 2025 00:02:05 GMT+0000 (Coordinated Universal Time)

1 66549U 25277A 25351.64637292 -.00000330 00000+0 00000+0 0 9993 2 66549 5.0065 274.8799 0000991 136.6968 24.4804 1.00269828 336
UTC large
Height (km)
Speed (km/s)
/
Latitude / Longitude
Inclination (degrees)
Orbital Period (minutes)
Azimuth
Elevation
Range (km)
Doppler Factor

Next 0 passes for location: London (51.5072 / 0.1276)

Sorry there are no passes over London.